Flag for Austria Weather past 2 weeks in Gmünd, Lower Austria, Austria

Now
81 °F

Warm.


Feels Like: 81 °F
Forecast: 58 / 74 °F
Wind: 1 mph from East

Location: Retz

Current Time: Jul 1, 2015 at 2:38:27 PM

Latest Report: Jul 1, 2015 at 1:00 PM


Visibility: N/A

Pressure: 30.13 "Hg

Humidity: 42%

Dew point: 56 °F

Location of GmündLocation

Historic Weather in Gmünd — Graph

°F

Gmünd temperature yesterday

Maximum temperature yesterday: 79 °F (at 3:00 PM)
Minimum temperature yesterday: 57 °F (at 5:00 AM)
Average temperature yesterday: 69 °F

Past Weeks' High & Low Weather Summary

 TemperatureHumidityPressure
High81 °F (Jul 1, 1:00 PM)99% (Jun 23, 3:00 AM)30.24 "Hg (Jun 23, 3:00 AM)
Low48 °F (Jun 18, 5:00 AM)35% (Jun 28, 5:00 PM)29.72 "Hg (Jun 23, 4:00 AM)
Average62 °F64%30.04 "Hg
* Reported Jun 16 1:00 PM — Jul 1 1:00 PM, Gmünd, Weather by CustomWeather, © 2015

Note: Actual official high and low records may vary slightly from our data, if they occured in-between our weather recording intervals... More about our weather records

Advertising

Gmünd weather history for previous 24 hours

 ConditionsComfort  
Time TempWeatherWind HumidityBarometerVisibility
1:00 PM
Wed, Jul 1
81 °FWarm.1 mph42%30.13 "HgN/A
12:00 PM79 °FWarm.3 mph41%30.15 "HgN/A
11:00 AM77 °FWarm.3 mph49%30.15 "HgN/A
10:00 AM74 °FMild.3 mph52%30.16 "HgN/A
9:00 AM72 °FMild.3 mph61%30.15 "HgN/A
8:00 AM69 °FPassing clouds.3 mph63%30.15 "Hg14 mi
7:00 AM66 °FScattered clouds.3 mph68%30.15 "Hg14 mi
6:00 AM65 °FMild.3 mph68%30.14 "HgN/A
4:00 AM65 °FMild.3 mph63%30.12 "HgN/A
3:00 AM66 °FMild.3 mph60%30.13 "HgN/A
2:00 AM67 °FMild.3 mph61%30.13 "HgN/A
1:00 AM67 °FMild.5 mph62%30.13 "HgN/A
12:00 AM67 °FMild.3 mph63%30.13 "HgN/A
11:00 PM
Tue, Jun 30
69 °FMild.3 mph63%30.12 "HgN/A
10:00 PM72 °FMild.1 mph61%30.09 "HgN/A
9:00 PM73 °FMild.2 mph60%30.08 "HgN/A
8:00 PM77 °FScattered clouds.2 mph49%30.07 "Hg16 mi
6:00 PM78 °FWarm.3 mph46%30.07 "HgN/A
4:00 PM77 °FMild.2 mph41%30.09 "HgN/A
3:00 PM79 °FPleasantly warm.3 mph40%30.08 "HgN/A
2:00 PM78 °FPassing clouds.2 mph40%30.10 "Hg17 mi
Weather by CustomWeather, © 2015

See weather overviewHow to use our weather pages